{"data":{"norad_id":53594,"intl_designator":"2022-104G","name":"STARLINK-4681","alt_names":[],"object_type":"PAYLOAD","status":"ACTIVE","operator":null,"country":"US","launch_date":"2022-08-28","launch_site_code":"AFETR","launch_vehicle":null,"mission":null,"orbit_class":"UNKNOWN","rcs_meters":null,"size_class":null,"mass_kg":null,"dimensions":null,"purposes":["comms"],"wikipedia_slug":null,"has_3d_model":false,"image_url":null,"decayed_at":null,"tle_current":{"epoch":"2026-05-25T04:00:03.998880Z","epoch_age_seconds":67544,"freshness":"FRESH","line1":"1 53594U 22104G   26145.16671295  .00680646  00000+0  42477-2 0  9995","line2":"2 53594  53.2171 243.2213 0000983  49.4007 152.0773 15.74402301  5915","mean_motion":15.74402301,"eccentricity":9.83e-5,"inclination_deg":53.2171,"raan_deg":243.2213,"arg_perigee_deg":49.4007,"mean_anomaly_deg":152.0773,"bstar":0.0042477,"rev_number":591,"period_min":91.463280959725,"perigee_km":345.67152604186,"apogee_km":346.9935567537,"semimajor_km":6724.4695413978,"source":"CELESTRAK","updated_at":"2026-05-25T13:38:17.474682Z"}}}